[[{"header":{"parameterUnit":"m.s-1","parameterCategory":2,"la1":30.2991,"la2":30.254,"lo1":-89.0895,"lo2":-89.0444,"dy":0.0017,"dx":0.0017,"nx":28,"ny":28,"refTime":"2026-02-24T09:00:00:Z","depth":"0","parameterNumber":2,"parameterNumberName":"U-component_of_CURRENTS"},"data":[0,0,0,0,0,0,0,0,0,0,0,0,0,0,0,0,0,0,0,0,0,0,0,0,0,0,0,0,0,0,0,0,0,0,0,0,0,0,0,0,0,0,0,0,0,0,0,0,0,0,0,0,0,0,0,0,0,0,-0.243,-0.243,0,-0.244,-0.244,-0.244,-0.2405,-0.2404,-0.2403,-0.2403,-0.2372,-0.2372,-0.2372,0,0,0,0,0,0,0,0,0,0,0,0,0,-0.2406,-0.2407,-0.243,-0.243,-0.243,-0.244,-0.244,-0.244,-0.2405,-0.2404,-0.2403,-0.2402,-0.2372,-0.2372,-0.2372,0,0,0,0,0,0,0,0,0,0,0,0,0,-0.2415,-0.2407,-0.2429,-0.2415,-0.2414,-0.244,-0.244,-0.244,-0.2406,-0.2404,-0.2403,-0.2402,-0.2372,-0.2372,-0.2372,-0.2399,0,0,-0.2372,-0.2372,0,0,0,0,0,0,0,0,-0.2415,-0.2416,-0.2417,-0.2416,-0.2415,-0.2421,-0.2421,-0.2425,-0.2406,-0.2407,-0.2403,-0.2401,-0.2387,-0.2385,-0.2389,-0.2398,-0.2397,-0.2372,-0.2372,-0.2372,-0.2372,0,0,0,0,0,0,0,-0.2414,-0.2415,-0.2432,-0.2417,-0.2416,-0.2418,-0.2417,-0.2422,-0.2402,-0.2407,-0.2405,-0.2409,-0.2385,-0.2389,-0.2388,-0.2396,-0.2372,-0.2372,-0.2372,-0.2372,-0.2426,-0.2427,0,0,0,0,0,0,-0.2416,-0.2415,-0.2432,-0.2433,-0.2413,-0.2419,-0.2418,-0.2419,-0.2403,-0.24,-0.241,-0.2407,-0.2389,-0.2388,-0.2386,-0.2412,-0.2372,-0.2372,-0.2372,-0.2425,-0.2426,-0.2428,0,0,0,0,0,0,-0.2416,-0.2418,-0.2431,-0.2425,-0.2427,-0.2421,-0.2423,-0.242,-0.2416,-0.2406,-0.2402,-0.2408,-0.2388,-0.2386,-0.2394,-0.241,-0.2372,-0.2372,-0.2423,-0.2425,-0.2427,-0.2466,0,0,0,0,0,0,-0.2415,-0.2417,-0.2418,-0.2425,-0.2428,-0.245,-0.2424,-0.2422,-0.2422,-0.2419,-0.2403,-0.2399,-0.2387,-0.2394,-0.2394,-0.241,-0.2372,-0.2421,-0.2424,-0.2427,-0.2463,-0.2469,-0.2475,0,0,0,0,0,-0.2414,-0.2422,-0.2418,-0.242,-0.2429,-0.2451,-0.2453,-0.2442,-0.2424,-0.2431,-0.2421,-0.2399,-0.2411,-0.2395,-0.2395,-0.2411,-0.242,-0.2423,-0.2426,-0.2461,-0.2468,-0.2475,0,0,0,0,0,0,-0.2411,-0.242,-0.2415,-0.2424,-0.2438,-0.2446,-0.245,-0.2445,-0.2444,-0.2434,-0.2417,-0.2413,-0.2429,-0.2419,-0.2403,-0.2437,-0.2413,-0.2416,-0.2439,-0.2446,-0.2452,-0.2444,-0.2372,0,0,0,0,0,-0.2413,-0.2417,-0.2432,-0.2438,-0.2446,-0.2448,-0.2454,-0.2451,-0.2453,-0.2449,-0.2441,-0.2436,-0.2446,-0.2443,-0.245,-0.2466,-0.2452,-0.2478,-0.2483,-0.2488,-0.2483,-0.2488,-0.2494,-0.2438,-0.2438,-0.2438,0,0,-0.2413,-0.2418,-0.2419,-0.2437,-0.2442,-0.2464,-0.2447,-0.246,-0.2474,-0.2448,-0.2458,-0.2458,-0.2457,-0.2477,-0.2482,-0.2466,-0.2498,-0.2492,-0.2496,-0.2488,-0.2492,-0.2497,-0.2502,-0.2441,-0.244,-0.244,0,0,-0.2419,-0.2421,-0.2429,-0.2447,-0.2462,-0.2471,-0.2476,-0.2489,-0.2489,-0.2508,-0.2495,-0.2504,-0.2512,-0.2517,-0.252,-0.2564,-0.2533,-0.2566,-0.2582,-0.2588,-0.2592,-0.2595,-0.2585,-0.2587,-0.2564,-0.2564,-0.2564,0,-0.242,-0.2427,-0.2436,-0.2456,-0.247,-0.2476,-0.2496,-0.251,-0.2522,-0.2528,-0.2514,-0.2536,-0.2533,-0.256,-0.2572,-0.2575,-0.2565,-0.2553,-0.2593,-0.2596,-0.2599,-0.2588,-0.259,-0.2566,-0.2566,-0.2566,-0.2566,0,-0.2432,-0.2444,-0.2454,-0.2477,-0.25,-0.2517,-0.2544,-0.256,-0.2559,-0.2568,-0.2591,-0.2593,-0.26,-0.2609,-0.26,-0.2625,-0.2607,-0.2603,-0.2571,-0.2607,-0.2593,-0.2595,-0.257,-0.2569,-0.2568,-0.2568,0,0,-0.2412,-0.2453,-0.2453,-0.2468,-0.2509,-0.2527,-0.2565,-0.2596,-0.2612,-0.2626,-0.2644,-0.2663,-0.2654,-0.2657,-0.2653,-0.2654,-0.2666,-0.2633,-0.2632,-0.2614,-0.2664,-0.2535,-0.2523,-0.2665,-0.2665,-0.2666,-0.2647,0,-0.2413,-0.2443,-0.2469,-0.2503,-0.2522,-0.2556,-0.2591,-0.2623,-0.2644,-0.2668,-0.2676,-0.2693,-0.2677,-0.2678,-0.2681,-0.2682,-0.2671,-0.2671,-0.2639,-0.2638,-0.2511,-0.2521,-0.2424,-0.2388,-0.2648,-0.2648,-0.2648,0,-0.2404,-0.2428,-0.2458,-0.251,-0.2522,-0.2548,-0.2597,-0.2631,-0.2679,-0.2695,-0.2715,-0.2722,-0.2742,-0.2714,-0.2717,-0.2717,-0.2685,-0.2674,-0.2673,-0.2535,-0.251,-0.2395,-0.238,-0.235,-0.2649,-0.2649,-0.2649,0,-0.2361,-0.2415,-0.2433,-0.2452,-0.2518,-0.2538,-0.2572,-0.2629,-0.2658,-0.2708,-0.273,-0.2754,-0.2766,-0.2749,-0.2716,-0.2723,-0.2699,-0.2711,-0.2561,-0.2552,-0.2452,-0.2432,-0.2392,-0.2688,-0.2688,-0.2688,-0.2688,0,-0.234,-0.2352,-0.2412,-0.2421,-0.2447,-0.2509,-0.254,-0.2584,-0.2647,-0.2683,-0.2729,-0.2756,-0.2773,-0.2762,-0.2727,-0.2633,-0.2705,-0.2553,-0.2534,-0.2462,-0.2443,-0.2398,-0.2424,-0.2687,-0.2687,-0.2688,-0.2688,0,-0.2275,-0.2318,-0.234,-0.2404,-0.2423,-0.2437,-0.251,-0.2536,-0.2611,-0.2662,-0.2679,-0.2759,-0.2737,-0.2713,-0.2689,-0.2631,-0.2511,-0.2506,-0.2404,-0.2371,-0.219,-0.2223,-0.2164,-0.21,-0.2354,-0.235,-0.2347,0,-0.2238,-0.2242,-0.2302,-0.2309,-0.2331,-0.2369,-0.2394,-0.2491,-0.2532,-0.2656,-0.2675,-0.2692,-0.2662,-0.2571,-0.2476,-0.2361,-0.2365,-0.221,-0.2195,-0.2147,-0.2173,-0.221,-0.2165,-0.2095,-0.209,-0.2086,-0.2083,0,-0.2157,-0.2177,-0.2194,-0.2214,-0.2238,-0.2272,-0.2327,-0.2361,-0.2484,-0.2532,-0.2592,-0.2581,-0.25,-0.2347,-0.2191,-0.212,-0.2151,-0.2123,-0.2118,-0.1987,-0.1985,-0.1924,-0.2143,-0.2049,-0.2052,-0.2055,-0.2057,-0.2058,-0.2076,-0.2068,-0.2089,-0.2096,-0.2129,-0.2156,-0.2145,-0.2229,-0.2275,-0.2323,-0.2421,-0.236,-0.2263,-0.2024,-0.1939,-0.1772,-0.1864,-0.173,-0.1783,-0.1831,-0.1733,-0.1847,-0.1697,-0.1698,-0.1699,-0.17,-0.1701,0,-0.1962,-0.1963,-0.1967,-0.1976,-0.196,-0.2022,-0.2075,-0.2048,-0.2055,-0.2114,-0.2113,-0.2026,-0.1845,-0.1755,-0.159,-0.149,-0.1477,-0.1457,-0.1525,-0.1499,-0.163,-0.1578,-0.1339,-0.1339,-0.1339,-0.1339,-0.1339,-0.134,-0.1901,-0.186,-0.1866,-0.1796,-0.1799,-0.1738,-0.1739,-0.1729,-0.1738,-0.1685,-0.166,-0.1681,-0.1629,-0.1654,-0.1479,-0.1385,-0.1367,-0.1311,-0.1342,-0.1479,-0.1511,-0.1541,-0.1497,-0.1245,-0.1245,-0.1159,-0.1158,-0.1158]},{"header":{"parameterUnit":"m.s-1","parameterCategory":2,"la1":30.2991,"la2":30.254,"lo1":-89.0895,"lo2":-89.0444,"dy":0.0017,"dx":0.0017,"nx":28,"ny":28,"refTime":"2026-02-24T09:00:00:Z","depth":"0","parameterNumber":3,"parameterNumberName":"V-component_of_CURRENTS"},"data":[0,0,0,0,0,0,0,0,0,0,0,0,0,0,0,0,0,0,0,0,0,0,0,0,0,0,0,0,0,0,0,0,0,0,0,0,0,0,0,0,0,0,0,0,0,0,0,0,0,0,0,0,0,0,0,0,0,0,-0.0157,-0.0156,0,-0.011,-0.011,-0.0109,-0.007,-0.007,-0.007,-0.0069,0.0028,0.0031,0.0033,0,0,0,0,0,0,0,0,0,0,0,0,0,-0.0176,-0.0176,-0.0157,-0.0156,-0.0156,-0.011,-0.011,-0.0109,-0.007,-0.007,-0.0069,-0.0069,0.0028,0.003,0.0033,0,0,0,0,0,0,0,0,0,0,0,0,0,-0.0151,-0.0176,-0.0157,-0.0132,-0.0129,-0.0111,-0.011,-0.0109,-0.007,-0.007,-0.0069,-0.0069,0.0027,0.003,0.0034,0.0045,0,0,0.0044,0.0046,0,0,0,0,0,0,0,0,-0.0153,-0.0151,-0.0136,-0.0134,-0.0131,-0.0097,-0.0081,-0.0055,-0.007,-0.0092,-0.0069,-0.0069,-0.001,-0.0003,0.0005,0.005,0.0054,0.0044,0.0047,0.0048,0.0049,0,0,0,0,0,0,0,-0.0155,-0.0152,-0.0137,-0.0136,-0.0132,-0.0111,-0.0107,-0.0076,-0.0052,-0.009,-0.0087,-0.0084,-0.0008,0.0002,0.0008,0.0055,0.0044,0.0047,0.005,0.0051,0.0129,0.0129,0,0,0,0,0,0,-0.0165,-0.0154,-0.0139,-0.0136,-0.0142,-0.0111,-0.0107,-0.0107,-0.0053,-0.0046,-0.0084,-0.0082,-0.0004,0.0004,0.0012,0.0028,0.0048,0.0051,0.0053,0.0129,0.0129,0.0129,0,0,0,0,0,0,-0.0166,-0.0164,-0.0141,-0.0144,-0.014,-0.0112,-0.0112,-0.0106,-0.0098,-0.005,-0.0041,-0.0081,-0.0004,0.0007,0.0035,0.0032,0.0053,0.0056,0.0129,0.0129,0.0129,0.006,0,0,0,0,0,0,-0.0167,-0.0165,-0.017,-0.0146,-0.014,-0.0138,-0.0112,-0.0106,-0.0097,-0.0094,-0.0045,-0.0035,-0.0002,0.003,0.0039,0.0037,0.0059,0.0129,0.0129,0.0129,0.0063,0.0058,0.0054,0,0,0,0,0,-0.0167,-0.018,-0.0171,-0.0169,-0.0148,-0.0139,-0.0134,-0.0111,-0.0097,-0.01,-0.0065,-0.0037,0.0037,0.0032,0.0043,0.0042,0.0129,0.0129,0.0129,0.0065,0.0059,0.0054,0,0,0,0,0,0,-0.0191,-0.0176,-0.0166,-0.0173,-0.016,-0.0133,-0.0133,-0.0116,-0.0091,-0.0086,-0.0039,-0.0027,-0.0003,0.003,0.0024,0.0066,0.0088,0.009,0.0036,0.0031,0.0027,0.0013,0.0061,0,0,0,0,0,-0.02,-0.0204,-0.0185,-0.0191,-0.0186,-0.016,-0.0153,-0.0139,-0.0113,-0.0102,-0.0068,-0.0028,0.0005,0.0025,0.0058,0.0079,0.013,0.0087,0.0083,0.0079,0.0075,0.0135,0.0136,0.0129,0.0129,0.0129,0,0,-0.021,-0.0203,-0.0205,-0.0196,-0.0182,-0.0189,-0.0155,-0.015,-0.0151,-0.0094,-0.0083,-0.0044,0.0007,0.0029,0.0044,0.0056,0.0113,0.0079,0.0075,0.0073,0.0135,0.0136,0.0137,0.0129,0.0129,0.0129,0,0,-0.0242,-0.0227,-0.0246,-0.0239,-0.0228,-0.0211,-0.0213,-0.0189,-0.0173,-0.0158,-0.0115,-0.0079,-0.0034,0.0004,0.0029,0.0023,0.0086,0.0034,0.0003,0.0061,0.0062,0.0063,0.0148,0.0158,0.0034,0.0034,0.0034,0,-0.0256,-0.0277,-0.0249,-0.0266,-0.0267,-0.0226,-0.0247,-0.0225,-0.0195,-0.0181,-0.0163,-0.0086,-0.0045,-0.0007,-0.0011,0.0013,0.0064,0.0015,0.0055,0.0057,0.006,0.0146,0.0158,0.003,0.0031,0.0031,0.0031,0,-0.0303,-0.0319,-0.0329,-0.0336,-0.0331,-0.0341,-0.0311,-0.0299,-0.0272,-0.0244,-0.0202,-0.0142,-0.0093,-0.0074,-0.0045,-0.0007,0.0031,0.0039,0.0064,0.0056,0.0149,0.0161,0.0026,0.0027,0.0028,0.0029,0,0,-0.0342,-0.036,-0.0365,-0.0384,-0.037,-0.0375,-0.0368,-0.0351,-0.0342,-0.0296,-0.0274,-0.0212,-0.0168,-0.0136,-0.0085,-0.0036,0.0033,0.0001,0.0006,0.0079,0.0184,0.0226,0.0245,0.0044,0.0046,0.0047,0.0248,0,-0.039,-0.0445,-0.0433,-0.0477,-0.0502,-0.0462,-0.046,-0.0432,-0.0391,-0.0356,-0.0276,-0.0238,-0.0193,-0.0167,-0.011,-0.0005,0.0061,-0.0021,0.0186,0.0193,0.0225,0.0258,0.0254,0.0433,0.0261,0.0264,0.0265,0,-0.0445,-0.0475,-0.0531,-0.0553,-0.0558,-0.0568,-0.055,-0.0543,-0.0474,-0.0439,-0.0375,-0.0307,-0.0217,-0.0186,0.0,-0.0054,0.0056,0.0141,0.0151,0.022,0.0258,0.0411,0.0464,0.0599,0.0286,0.0284,0.0283,0,-0.0498,-0.0543,-0.0591,-0.06,-0.0613,-0.062,-0.0617,-0.0568,-0.0557,-0.0486,-0.0456,-0.0342,-0.0265,-0.0134,0.0057,0.0026,0.0276,0.0259,0.0409,0.0415,0.0468,0.0475,0.0668,0.0389,0.0388,0.0388,0.0387,0,-0.0561,-0.06,-0.0621,-0.0651,-0.0696,-0.0676,-0.0696,-0.0672,-0.0623,-0.0597,-0.0501,-0.0427,-0.0251,-0.0083,0.0062,0.0299,0.0294,0.042,0.0468,0.0447,0.045,0.0613,0.0666,0.0395,0.0394,0.0392,0.0391,0,-0.0617,-0.0631,-0.0692,-0.0719,-0.0727,-0.0759,-0.0763,-0.0768,-0.0711,-0.0668,-0.0646,-0.047,-0.0247,-0.0045,0.021,0.0326,0.0623,0.0613,0.0592,0.0633,0.0846,0.0893,0.1152,0.1241,0.0789,0.0791,0.0793,0,-0.0652,-0.0689,-0.0748,-0.0784,-0.08,-0.0835,-0.0854,-0.0822,-0.0815,-0.0676,-0.065,-0.0426,-0.0243,0.0159,0.0391,0.0669,0.0771,0.0824,0.0747,0.0877,0.0966,0.0999,0.1056,0.0811,0.0813,0.0814,0.0816,0,-0.0716,-0.0732,-0.078,-0.086,-0.0898,-0.094,-0.0955,-0.0962,-0.0894,-0.0814,-0.0637,-0.0472,-0.0084,0.0239,0.0585,0.074,0.0911,0.0862,0.1003,0.1008,0.1053,0.1154,0.068,0.0829,0.0828,0.0827,0.0826,0.0826,-0.0751,-0.08,-0.086,-0.0932,-0.0983,-0.1026,-0.1044,-0.1017,-0.097,-0.0819,-0.0644,-0.037,0.0075,0.056,0.075,0.1085,0.1063,0.116,0.1216,0.1245,0.1298,0.0863,0.105,0.1049,0.1049,0.1049,0.1049,0,-0.0793,-0.0847,-0.0926,-0.1005,-0.1068,-0.1075,-0.1094,-0.1066,-0.0981,-0.0802,-0.0596,-0.0109,0.033,0.0731,0.1211,0.1413,0.145,0.1521,0.1559,0.1607,0.1236,0.1199,0.1417,0.1417,0.1417,0.1417,0.1417,0.1417,-0.0816,-0.0898,-0.0942,-0.1053,-0.1105,-0.1147,-0.1149,-0.1063,-0.094,-0.0628,-0.0346,-0.0113,0.0449,0.1245,0.1703,0.1751,0.1934,0.1927,0.2049,0.1767,0.1736,0.1707,0.1686,0.2003,0.2004,0.2382,0.2385,0.2388]}],[{"header":{"parameterUnit":"m.s-1","parameterCategory":2,"la1":30.2991,"la2":30.254,"lo1":-89.0895,"lo2":-89.0444,"dy":0.0017,"dx":0.0017,"nx":28,"ny":28,"refTime":"2026-02-24T09:00:00:Z","depth":"2","parameterNumber":2,"parameterNumberName":"U-component_of_CURRENTS"},"data":[0,0,0,0,0,0,0,0,0,0,0,0,0,0,0,0,0,0,0,0,0,0,0,0,0,0,0,0,0,0,0,0,0,0,0,0,0,0,0,0,0,0,0,0,0,0,0,0,0,0,0,0,0,0,0,0,0,0,-0.2207,-0.2207,0,-0.2235,-0.2235,-0.2236,-0.2213,-0.2212,-0.2212,-0.2211,-0.2194,-0.2194,-0.2194,0,0,0,0,0,0,0,0,0,0,0,0,0,-0.2148,-0.2149,-0.2207,-0.2207,-0.2208,-0.2235,-0.2235,-0.2236,-0.2213,-0.2212,-0.2211,-0.221,-0.2194,-0.2194,-0.2194,0,0,0,0,0,0,0,0,0,0,0,0,0,-0.2173,-0.2149,-0.2207,-0.2201,-0.2201,-0.2235,-0.2235,-0.2236,-0.2213,-0.2212,-0.2211,-0.221,-0.2194,-0.2194,-0.2194,-0.2221,0,0,-0.2196,-0.2196,0,0,0,0,0,0,0,0,-0.2171,-0.2175,-0.2201,-0.2202,-0.2202,-0.2221,-0.2209,-0.2229,-0.2214,-0.2207,-0.2211,-0.2209,-0.2201,-0.2201,-0.2207,-0.222,-0.2219,-0.2196,-0.2196,-0.2196,-0.2196,0,0,0,0,0,0,0,-0.217,-0.2174,-0.2216,-0.2202,-0.2202,-0.2203,-0.2205,-0.2213,-0.2208,-0.2207,-0.2206,-0.2213,-0.22,-0.2206,-0.2206,-0.2219,-0.2196,-0.2196,-0.2196,-0.2197,-0.2258,-0.2259,0,0,0,0,0,0,-0.2171,-0.2172,-0.2215,-0.2217,-0.2185,-0.2205,-0.2207,-0.2215,-0.2209,-0.2208,-0.2214,-0.2212,-0.2206,-0.2205,-0.2205,-0.2237,-0.2196,-0.2197,-0.2197,-0.2256,-0.2258,-0.226,0,0,0,0,0,0,-0.2169,-0.2174,-0.2214,-0.2196,-0.2202,-0.2207,-0.2216,-0.2216,-0.2219,-0.2214,-0.2212,-0.2216,-0.2205,-0.2205,-0.2218,-0.2236,-0.2197,-0.2197,-0.2255,-0.2257,-0.2259,-0.2299,0,0,0,0,0,0,-0.2168,-0.2174,-0.2179,-0.2197,-0.2203,-0.2239,-0.2217,-0.2217,-0.2226,-0.2223,-0.2216,-0.2214,-0.2204,-0.2217,-0.2218,-0.2235,-0.2198,-0.2253,-0.2256,-0.2258,-0.2296,-0.2302,-0.2308,0,0,0,0,0,-0.2165,-0.2179,-0.2179,-0.2184,-0.221,-0.224,-0.2243,-0.2241,-0.2227,-0.2237,-0.2232,-0.2214,-0.2234,-0.2219,-0.222,-0.2237,-0.2252,-0.2255,-0.2258,-0.2294,-0.2301,-0.2308,0,0,0,0,0,0,-0.2154,-0.2179,-0.2179,-0.2198,-0.2219,-0.2236,-0.2245,-0.2245,-0.2251,-0.2244,-0.2231,-0.223,-0.225,-0.2242,-0.2226,-0.2264,-0.224,-0.2244,-0.2267,-0.2274,-0.228,-0.2271,-0.2198,0,0,0,0,0,-0.2157,-0.217,-0.2197,-0.221,-0.2222,-0.2234,-0.2244,-0.2247,-0.2257,-0.2257,-0.2254,-0.2255,-0.2267,-0.2267,-0.2276,-0.2296,-0.228,-0.2309,-0.2315,-0.232,-0.2315,-0.2318,-0.2323,-0.227,-0.227,-0.227,0,0,-0.2155,-0.217,-0.2177,-0.2209,-0.2221,-0.2248,-0.2237,-0.2258,-0.2277,-0.2256,-0.2274,-0.2277,-0.2278,-0.2302,-0.231,-0.2294,-0.2327,-0.2324,-0.2328,-0.232,-0.2322,-0.2327,-0.2331,-0.2272,-0.2271,-0.2271,0,0,-0.2163,-0.2175,-0.2191,-0.2215,-0.2243,-0.2257,-0.2264,-0.2288,-0.2293,-0.232,-0.231,-0.2323,-0.2338,-0.2344,-0.2348,-0.2393,-0.2361,-0.2396,-0.2413,-0.2417,-0.2421,-0.2424,-0.2407,-0.2409,-0.2395,-0.2395,-0.2395,0,-0.216,-0.2183,-0.2201,-0.2229,-0.2248,-0.2262,-0.2288,-0.2307,-0.233,-0.2339,-0.2329,-0.236,-0.2359,-0.2388,-0.2401,-0.2405,-0.2391,-0.2385,-0.2423,-0.2426,-0.2428,-0.241,-0.2411,-0.2397,-0.2397,-0.2397,-0.2396,0,-0.2182,-0.2205,-0.2218,-0.2255,-0.2283,-0.2307,-0.234,-0.2361,-0.2368,-0.2382,-0.2411,-0.2416,-0.2428,-0.2438,-0.243,-0.2455,-0.2435,-0.2432,-0.24,-0.2436,-0.2415,-0.2415,-0.2401,-0.24,-0.2399,-0.2398,0,0,-0.2159,-0.2221,-0.2224,-0.2244,-0.2297,-0.2319,-0.2362,-0.24,-0.2419,-0.2442,-0.2464,-0.2489,-0.2482,-0.2487,-0.2484,-0.2485,-0.2493,-0.2463,-0.2462,-0.2437,-0.2482,-0.2381,-0.2371,-0.2493,-0.2493,-0.2494,-0.2459,0,-0.2166,-0.2214,-0.2247,-0.2291,-0.2318,-0.2355,-0.2393,-0.243,-0.2456,-0.2484,-0.2496,-0.2516,-0.2504,-0.2507,-0.2511,-0.2504,-0.2495,-0.2501,-0.2459,-0.2457,-0.2356,-0.2369,-0.2199,-0.2145,-0.2458,-0.2458,-0.2458,0,-0.2168,-0.2201,-0.2245,-0.2305,-0.232,-0.235,-0.2404,-0.2441,-0.2492,-0.2511,-0.2535,-0.2543,-0.256,-0.254,-0.2534,-0.2536,-0.2507,-0.2494,-0.2492,-0.2381,-0.2356,-0.2162,-0.2133,-0.2458,-0.2458,-0.2458,-0.2458,0,-0.2127,-0.2194,-0.2224,-0.2247,-0.2321,-0.2344,-0.2381,-0.2441,-0.247,-0.2523,-0.2541,-0.2568,-0.257,-0.2559,-0.2527,-0.2533,-0.2503,-0.2511,-0.2391,-0.2383,-0.2219,-0.2196,-0.2493,-0.2493,-0.2493,-0.2493,-0.2493,0,-0.2112,-0.2133,-0.2205,-0.2221,-0.2253,-0.2319,-0.2355,-0.24,-0.2461,-0.2487,-0.2541,-0.2551,-0.2573,-0.256,-0.2533,-0.245,-0.2506,-0.2385,-0.2366,-0.2228,-0.2207,-0.2466,-0.2463,-0.2492,-0.2492,-0.2492,-0.2493,0,-0.2052,-0.2105,-0.2137,-0.2212,-0.2233,-0.2252,-0.2326,-0.235,-0.2424,-0.2459,-0.2474,-0.2535,-0.2514,-0.2512,-0.2487,-0.2437,-0.2385,-0.2337,-0.2161,-0.2121,-0.2264,-0.2264,-0.2211,-0.2208,-0.2204,-0.2202,-0.2199,0,-0.2022,-0.2034,-0.2105,-0.2117,-0.2145,-0.2188,-0.2213,-0.2308,-0.2338,-0.2431,-0.2435,-0.2452,-0.2418,-0.2349,-0.2273,-0.2193,-0.2281,-0.1993,-0.1975,-0.2247,-0.2235,-0.2241,-0.2245,-0.1778,-0.1772,-0.1768,-0.1764,0,-0.1952,-0.1977,-0.2001,-0.2029,-0.2055,-0.2089,-0.2137,-0.2157,-0.2261,-0.2287,-0.2303,-0.2287,-0.2233,-0.2068,-0.1975,-0.1916,-0.1998,-0.1896,-0.2223,-0.1874,-0.1834,-0.1824,-0.1844,-0.1723,-0.1727,-0.173,-0.1733,-0.1734,-0.188,-0.1876,-0.1906,-0.1918,-0.1949,-0.1962,-0.1939,-0.1994,-0.2008,-0.2003,-0.2092,-0.1997,-0.1985,-0.1737,-0.1642,-0.1574,-0.1717,-0.1649,-0.1664,-0.1685,-0.1639,-0.1596,-0.1431,-0.1433,-0.1435,-0.1437,-0.1438,0,-0.1777,-0.1783,-0.179,-0.1799,-0.1776,-0.1838,-0.1858,-0.1802,-0.175,-0.1767,-0.1732,-0.1545,-0.1421,-0.1417,-0.1238,-0.1203,-0.1211,-0.1161,-0.1178,-0.1218,-0.1254,-0.1189,-0.086,-0.0858,-0.0856,-0.0855,0,0,-0.1723,-0.1689,-0.1692,-0.1616,-0.1615,-0.1538,-0.1514,-0.1449,-0.142,-0.1311,-0.125,-0.1321,-0.136,-0.1104,-0.105,-0.0923,-0.1062,-0.0875,-0.1339,-0.1398,-0.1432,-0.1532,-0.1476,0,0,0,0,0]},{"header":{"parameterUnit":"m.s-1","parameterCategory":2,"la1":30.2991,"la2":30.254,"lo1":-89.0895,"lo2":-89.0444,"dy":0.0017,"dx":0.0017,"nx":28,"ny":28,"refTime":"2026-02-24T09:00:00:Z","depth":"2","parameterNumber":3,"parameterNumberName":"V-component_of_CURRENTS"},"data":[0,0,0,0,0,0,0,0,0,0,0,0,0,0,0,0,0,0,0,0,0,0,0,0,0,0,0,0,0,0,0,0,0,0,0,0,0,0,0,0,0,0,0,0,0,0,0,0,0,0,0,0,0,0,0,0,0,0,-0.0251,-0.025,0,-0.0203,-0.0203,-0.0202,-0.0163,-0.0163,-0.0163,-0.0162,-0.0073,-0.0071,-0.0069,0,0,0,0,0,0,0,0,0,0,0,0,0,-0.0274,-0.0274,-0.0251,-0.025,-0.025,-0.0204,-0.0203,-0.0202,-0.0163,-0.0163,-0.0163,-0.0162,-0.0073,-0.0071,-0.0069,0,0,0,0,0,0,0,0,0,0,0,0,0,-0.0248,-0.0274,-0.0251,-0.0226,-0.0223,-0.0204,-0.0203,-0.0202,-0.0163,-0.0163,-0.0162,-0.0162,-0.0074,-0.0071,-0.0068,-0.0059,0,0,-0.0059,-0.0057,0,0,0,0,0,0,0,0,-0.025,-0.0247,-0.023,-0.0227,-0.0224,-0.0189,-0.0178,-0.0152,-0.0164,-0.0185,-0.0162,-0.0162,-0.0109,-0.0103,-0.0094,-0.0055,-0.0051,-0.0058,-0.0056,-0.0055,-0.0054,0,0,0,0,0,0,0,-0.0252,-0.0249,-0.0231,-0.0229,-0.0226,-0.0205,-0.0201,-0.0173,-0.0149,-0.0183,-0.0181,-0.0177,-0.0107,-0.0098,-0.0092,-0.005,-0.0058,-0.0056,-0.0054,-0.0053,0.0014,0.0014,0,0,0,0,0,0,-0.0261,-0.0251,-0.0233,-0.023,-0.0237,-0.0205,-0.02,-0.0201,-0.015,-0.0143,-0.0177,-0.0175,-0.0103,-0.0096,-0.0089,-0.0075,-0.0055,-0.0052,-0.005,0.0014,0.0014,0.0014,0,0,0,0,0,0,-0.0262,-0.026,-0.0235,-0.024,-0.0235,-0.0205,-0.0206,-0.02,-0.019,-0.0146,-0.0137,-0.0174,-0.0102,-0.0093,-0.0067,-0.0071,-0.0051,-0.0048,0.0014,0.0014,0.0014,-0.0047,0,0,0,0,0,0,-0.0263,-0.0261,-0.0265,-0.0241,-0.0235,-0.0231,-0.0206,-0.0199,-0.0189,-0.0186,-0.014,-0.0131,-0.0101,-0.0072,-0.0064,-0.0066,-0.0046,0.0014,0.0014,0.0014,-0.0045,-0.005,-0.0053,0,0,0,0,0,-0.0264,-0.0276,-0.0266,-0.0264,-0.0242,-0.0232,-0.0227,-0.0203,-0.019,-0.0192,-0.0159,-0.0133,-0.0067,-0.007,-0.0061,-0.0062,0.0014,0.0014,0.0014,-0.0043,-0.0049,-0.0053,0,0,0,0,0,0,-0.029,-0.0272,-0.0261,-0.0267,-0.0253,-0.0226,-0.0225,-0.0208,-0.0184,-0.0179,-0.0135,-0.0125,-0.0104,-0.0074,-0.0078,-0.0042,-0.0021,-0.002,-0.0068,-0.0073,-0.0077,-0.0088,-0.0043,0,0,0,0,0,-0.0298,-0.03,-0.028,-0.0285,-0.0279,-0.0252,-0.0245,-0.023,-0.0205,-0.0194,-0.0163,-0.0127,-0.0097,-0.0079,-0.005,-0.0032,0.0006,-0.0025,-0.0029,-0.0033,-0.0035,0.0014,0.0014,0.0013,0.0013,0.0013,0,0,-0.0309,-0.03,-0.0301,-0.029,-0.0275,-0.0279,-0.0247,-0.024,-0.024,-0.0188,-0.0177,-0.0142,-0.0096,-0.0077,-0.0064,-0.0052,-0.0012,-0.0033,-0.0037,-0.0037,0.0014,0.0014,0.0014,0.0013,0.0013,0.0013,0,0,-0.0339,-0.0325,-0.0339,-0.0331,-0.0316,-0.03,-0.0301,-0.0276,-0.0261,-0.0247,-0.0208,-0.0175,-0.0135,-0.0101,-0.0078,-0.0086,-0.0037,-0.0077,-0.0104,-0.0057,-0.0056,-0.0055,-0.0005,0.0001,-0.0077,-0.0077,-0.0077,0,-0.0355,-0.0369,-0.0342,-0.0354,-0.0353,-0.0314,-0.033,-0.031,-0.0281,-0.0268,-0.0252,-0.0183,-0.0146,-0.0112,-0.0115,-0.0095,-0.006,-0.0092,-0.0063,-0.0061,-0.0059,-0.0007,0.0,-0.008,-0.0079,-0.0079,-0.0079,0,-0.0394,-0.0405,-0.0413,-0.0415,-0.0409,-0.0416,-0.0388,-0.0377,-0.0351,-0.0326,-0.0289,-0.0234,-0.0191,-0.0174,-0.0147,-0.0116,-0.0093,-0.0077,-0.0053,-0.0063,-0.0007,0.0002,-0.0084,-0.0083,-0.0082,-0.0081,0,0,-0.0431,-0.0441,-0.0444,-0.0459,-0.0442,-0.0445,-0.0439,-0.0423,-0.0417,-0.0373,-0.0357,-0.0298,-0.0259,-0.0231,-0.0185,-0.0143,-0.0098,-0.0111,-0.0107,-0.0066,0.001,0.0022,0.0033,-0.0079,-0.0078,-0.0077,0.0045,0,-0.0473,-0.0515,-0.0502,-0.0538,-0.0557,-0.0521,-0.052,-0.0495,-0.046,-0.0433,-0.036,-0.0327,-0.0282,-0.026,-0.0211,-0.0127,-0.0078,-0.0132,0.0019,0.0023,0.003,0.0042,0.002,0.0126,0.0054,0.0055,0.0056,0,-0.0517,-0.0541,-0.0586,-0.0604,-0.0608,-0.0617,-0.0603,-0.0598,-0.054,-0.051,-0.0453,-0.0394,-0.0319,-0.0284,-0.0139,-0.0177,-0.0091,-0.0023,-0.0017,0.0021,0.0051,0.0124,0.0145,0.0071,0.007,0.0069,0.0068,0,-0.0564,-0.0599,-0.0639,-0.0646,-0.0656,-0.0663,-0.0661,-0.0621,-0.0616,-0.0554,-0.0536,-0.0435,-0.038,-0.0266,-0.0122,-0.013,0.0038,0.005,0.0146,0.0148,0.0173,0.0175,0.0151,0.0151,0.0151,0.0151,0.015,0,-0.0617,-0.0649,-0.0666,-0.069,-0.0733,-0.0714,-0.0737,-0.0717,-0.068,-0.0673,-0.0578,-0.054,-0.0375,-0.0257,-0.0132,0.0037,0.0039,0.0147,0.0181,0.0151,0.015,0.0135,0.0131,0.0155,0.0154,0.0153,0.0152,0,-0.0665,-0.0675,-0.0727,-0.0751,-0.076,-0.079,-0.0801,-0.0812,-0.0766,-0.0752,-0.0734,-0.0607,-0.0452,-0.0279,-0.0079,0.0026,0.0182,0.0241,0.0196,0.0222,0.0265,0.0256,0.0361,0.0363,0.0364,0.0365,0.0366,0,-0.0695,-0.0726,-0.0779,-0.0814,-0.0829,-0.0864,-0.0887,-0.0861,-0.0865,-0.0792,-0.0785,-0.0634,-0.0523,-0.0222,-0.0008,0.0224,0.0228,0.033,0.031,0.0264,0.0287,0.0276,0.0267,0.0328,0.0328,0.0329,0.0329,0,-0.0751,-0.0766,-0.0809,-0.0885,-0.0925,-0.0969,-0.0993,-0.1007,-0.0968,-0.0931,-0.085,-0.0754,-0.0467,-0.0215,0.008,0.0211,0.0288,0.0345,0.0326,0.0265,0.0239,0.0258,0.0249,0.0333,0.0332,0.0332,0.0332,0.0332,-0.0784,-0.0829,-0.0885,-0.0953,-0.1008,-0.1059,-0.1084,-0.1082,-0.1073,-0.0992,-0.0903,-0.072,-0.0489,-0.0063,0.0149,0.0356,0.034,0.0398,0.0395,0.0391,0.0352,0.0328,0.0432,0.0432,0.0433,0.0433,0.0433,0,-0.0826,-0.0875,-0.0949,-0.1028,-0.1095,-0.1105,-0.1142,-0.1129,-0.1102,-0.099,-0.0879,-0.0604,-0.0326,-0.0064,0.0258,0.0429,0.0423,0.0467,0.0422,0.0417,0.0413,0.0373,0.0461,0.0462,0.0462,0.0463,0,0,-0.0849,-0.0926,-0.0965,-0.108,-0.1134,-0.1188,-0.1201,-0.1151,-0.1062,-0.0931,-0.078,-0.0608,-0.0309,-0.0075,0.0144,0.0321,0.033,0.0343,0.0299,0.0216,0.021,0.0349,0.0278,0,0,0,0,0]}],[{"header":{"parameterUnit":"m.s-1","parameterCategory":2,"la1":30.2991,"la2":30.254,"lo1":-89.0895,"lo2":-89.0444,"dy":0.0017,"dx":0.0017,"nx":28,"ny":28,"refTime":"2026-02-24T09:00:00:Z","depth":"4","parameterNumber":2,"parameterNumberName":"U-component_of_CURRENTS"},"data":[0,0,0,0,0,0,0,0,0,0,0,0,0,0,0,0,0,0,0,0,0,0,0,0,0,0,0,0,0,0,0,0,0,0,0,0,0,0,0,0,0,0,0,0,0,0,0,0,0,0,0,0,0,0,0,0,0,0,-0.1587,-0.1587,0,-0.1664,-0.1664,-0.1665,-0.1704,-0.1704,-0.1705,-0.1705,-0.176,-0.1761,-0.1762,0,0,0,0,0,0,0,0,0,0,0,0,0,-0.1473,-0.1475,-0.1586,-0.1588,-0.1589,-0.1664,-0.1664,-0.1665,-0.1704,-0.1704,-0.1705,-0.1705,-0.1759,-0.1761,-0.1762,0,0,0,0,0,0,0,0,0,0,0,0,0,-0.1532,-0.1475,-0.1586,-0.1618,-0.1622,-0.1663,-0.1664,-0.1666,-0.1704,-0.1704,-0.1705,-0.1705,-0.1759,-0.1761,-0.1763,-0.1769,0,0,-0.1768,-0.1769,0,0,0,0,0,0,0,0,-0.1528,-0.1536,-0.1613,-0.1616,-0.1621,-0.1676,-0.1645,-0.17,-0.1704,-0.1671,-0.1705,-0.1705,-0.1731,-0.1735,-0.1747,-0.1771,-0.1774,-0.1769,-0.177,-0.1771,-0.1771,0,0,0,0,0,0,0,-0.1524,-0.1533,-0.1615,-0.1614,-0.1619,-0.1629,-0.1638,-0.1655,-0.1697,-0.1674,-0.1677,-0.1689,-0.1732,-0.1745,-0.1748,-0.1775,-0.1769,-0.177,-0.1772,-0.1772,-0.1878,-0.188,0,0,0,0,0,0,-0.1518,-0.1529,-0.1613,-0.1618,-0.1576,-0.1631,-0.1641,-0.1657,-0.1697,-0.1704,-0.1688,-0.169,-0.1741,-0.1746,-0.175,-0.1825,-0.1771,-0.1772,-0.1774,-0.1877,-0.1879,-0.188,0,0,0,0,0,0,-0.1516,-0.1525,-0.161,-0.1576,-0.1588,-0.1633,-0.1651,-0.1658,-0.1696,-0.1709,-0.1715,-0.1722,-0.1742,-0.1747,-0.1794,-0.1825,-0.1773,-0.1775,-0.1875,-0.1877,-0.1879,-0.1932,0,0,0,0,0,0,-0.1512,-0.1524,-0.1546,-0.1576,-0.159,-0.1653,-0.1651,-0.1659,-0.1702,-0.1706,-0.1739,-0.1743,-0.1742,-0.1791,-0.1796,-0.1826,-0.1777,-0.1872,-0.1876,-0.1879,-0.1928,-0.1936,-0.1943,0,0,0,0,0,-0.1508,-0.1534,-0.1547,-0.1558,-0.1615,-0.1654,-0.1663,-0.1694,-0.1704,-0.1728,-0.1753,-0.1743,-0.1814,-0.1794,-0.1799,-0.1831,-0.1871,-0.1875,-0.1878,-0.1925,-0.1935,-0.1943,0,0,0,0,0,0,-0.1497,-0.1541,-0.1556,-0.1595,-0.1631,-0.1662,-0.1692,-0.171,-0.1749,-0.176,-0.1766,-0.1772,-0.1824,-0.1823,-0.1801,-0.1871,-0.184,-0.1845,-0.1874,-0.1883,-0.189,-0.1878,-0.1778,0,0,0,0,0,-0.1504,-0.1538,-0.1576,-0.161,-0.1631,-0.1666,-0.1692,-0.1714,-0.1746,-0.1765,-0.1789,-0.1814,-0.184,-0.1858,-0.1879,-0.1919,-0.1897,-0.1943,-0.195,-0.1956,-0.1951,-0.1954,-0.196,-0.1893,-0.1893,-0.1892,0,0,-0.151,-0.1539,-0.1559,-0.1611,-0.1642,-0.168,-0.1683,-0.1731,-0.1767,-0.1764,-0.1827,-0.1844,-0.1857,-0.1903,-0.1925,-0.1908,-0.1964,-0.1961,-0.1966,-0.1957,-0.1958,-0.1965,-0.197,-0.1895,-0.1895,-0.1894,0,0,-0.1528,-0.1565,-0.1597,-0.1632,-0.1686,-0.1708,-0.1728,-0.1777,-0.1807,-0.1863,-0.187,-0.1907,-0.1952,-0.1965,-0.1975,-0.2035,-0.2004,-0.2048,-0.2074,-0.2078,-0.2083,-0.2087,-0.2062,-0.2063,-0.2049,-0.205,-0.205,0,-0.1535,-0.1579,-0.1613,-0.1653,-0.1686,-0.1724,-0.1764,-0.18,-0.186,-0.1884,-0.1893,-0.1963,-0.1978,-0.2019,-0.2042,-0.2051,-0.2036,-0.2039,-0.2085,-0.2089,-0.2092,-0.2066,-0.2067,-0.2053,-0.2052,-0.2052,-0.2052,0,-0.1569,-0.1617,-0.164,-0.1702,-0.1741,-0.1785,-0.1834,-0.188,-0.1919,-0.1948,-0.2011,-0.2034,-0.2068,-0.2086,-0.2084,-0.2121,-0.2097,-0.2094,-0.2058,-0.2102,-0.2071,-0.2071,-0.2057,-0.2056,-0.2055,-0.2054,0,0,-0.1548,-0.1646,-0.1657,-0.1693,-0.1772,-0.1803,-0.187,-0.193,-0.1969,-0.2027,-0.2071,-0.2123,-0.2132,-0.2144,-0.215,-0.2157,-0.217,-0.2138,-0.2136,-0.2103,-0.2156,-0.2011,-0.1997,-0.2175,-0.2176,-0.2176,-0.2123,0,-0.1566,-0.1641,-0.1689,-0.1762,-0.1803,-0.1861,-0.1915,-0.1975,-0.2025,-0.2077,-0.2109,-0.2154,-0.2155,-0.2175,-0.2185,-0.2177,-0.2173,-0.2183,-0.2127,-0.2125,-0.1982,-0.1993,-0.2178,-0.2123,-0.2122,-0.2122,-0.2122,0,-0.1575,-0.1627,-0.1703,-0.1791,-0.1815,-0.1866,-0.195,-0.2003,-0.2078,-0.2116,-0.2163,-0.2185,-0.2217,-0.2208,-0.2207,-0.2213,-0.2188,-0.2173,-0.2171,-0.2013,-0.1979,-0.2072,-0.2122,-0.2122,-0.2122,-0.2122,-0.2122,0,-0.1528,-0.1631,-0.1692,-0.1726,-0.1831,-0.1878,-0.1934,-0.2017,-0.2058,-0.2138,-0.2164,-0.2211,-0.2224,-0.2221,-0.2194,-0.2206,-0.2167,-0.2179,-0.202,-0.2009,-0.2133,-0.2129,-0.2165,-0.2165,-0.2166,-0.2166,-0.2166,0,-0.151,-0.156,-0.1681,-0.1713,-0.1778,-0.1862,-0.193,-0.1992,-0.207,-0.2094,-0.2175,-0.2177,-0.2228,-0.2213,-0.2194,-0.2087,-0.2165,-0.201,-0.1984,-0.2156,-0.2156,-0.2132,-0.2129,-0.2164,-0.2164,-0.2164,-0.2165,0,-0.1442,-0.1528,-0.1599,-0.172,-0.176,-0.1805,-0.1915,-0.1948,-0.2039,-0.2071,-0.2093,-0.2152,-0.2123,-0.2141,-0.2118,-0.2055,-0.1994,-0.1938,-0.2098,-0.2084,-0.1836,-0.1837,-0.1757,-0.1751,-0.1746,-0.1742,-0.1739,0,-0.1411,-0.1446,-0.1582,-0.1617,-0.1677,-0.1759,-0.1802,-0.1917,-0.194,-0.2021,-0.2007,-0.2027,-0.2043,-0.1881,-0.1931,-0.1872,-0.1854,-0.1812,-0.1843,-0.181,-0.1794,-0.1802,-0.1809,-0.1731,-0.173,-0.1729,-0.1728,0,-0.1339,-0.1404,-0.1459,-0.1534,-0.1596,-0.1648,-0.1717,-0.1719,-0.1819,-0.1922,-0.1855,-0.183,-0.1786,-0.1763,-0.1722,-0.169,-0.184,-0.1762,-0.1773,-0.1802,-0.1779,-0.1769,-0.1781,-0.1711,-0.1714,-0.1715,-0.1716,0,-0.1279,-0.1298,-0.1376,-0.1423,-0.1495,-0.1501,-0.156,-0.1567,-0.1603,-0.1697,-0.1661,-0.1686,-0.1745,-0.1664,-0.1629,-0.1583,-0.1571,-0.1528,-0.1551,-0.157,-0.1536,-0.1481,-0.1283,0,0,0,0,0,-0.1208,-0.1214,-0.1252,-0.1296,-0.1358,-0.1392,-0.1479,-0.1536,-0.1633,-0.1534,-0.1594,-0.1544,-0.1485,-0.1505,-0.1417,-0.1563,-0.1589,-0.1456,-0.1557,-0.162,-0.1639,-0.1619,0,0,0,0,0,0,-0.1161,-0.1198,-0.121,-0.1173,-0.1169,-0.1216,-0.1263,-0.1332,-0.1288,-0.1389,-0.1359,-0.1441,-0.1407,-0.1496,-0.1378,-0.1386,-0.1416,-0.1489,-0.1485,-0.1609,-0.1626,-0.1642,-0.1627,0,0,0,0,0]},{"header":{"parameterUnit":"m.s-1","parameterCategory":2,"la1":30.2991,"la2":30.254,"lo1":-89.0895,"lo2":-89.0444,"dy":0.0017,"dx":0.0017,"nx":28,"ny":28,"refTime":"2026-02-24T09:00:00:Z","depth":"4","parameterNumber":3,"parameterNumberName":"V-component_of_CURRENTS"},"data":[0,0,0,0,0,0,0,0,0,0,0,0,0,0,0,0,0,0,0,0,0,0,0,0,0,0,0,0,0,0,0,0,0,0,0,0,0,0,0,0,0,0,0,0,0,0,0,0,0,0,0,0,0,0,0,0,0,0,-0.021,-0.021,0,-0.0177,-0.0177,-0.0177,-0.0149,-0.0149,-0.0149,-0.0149,-0.0081,-0.008,-0.0078,0,0,0,0,0,0,0,0,0,0,0,0,0,-0.0219,-0.0219,-0.021,-0.021,-0.0209,-0.0178,-0.0177,-0.0176,-0.0149,-0.0149,-0.0149,-0.0149,-0.0082,-0.008,-0.0078,0,0,0,0,0,0,0,0,0,0,0,0,0,-0.0203,-0.0219,-0.021,-0.0192,-0.0191,-0.0178,-0.0177,-0.0176,-0.015,-0.0149,-0.0149,-0.0148,-0.0082,-0.008,-0.0078,-0.007,0,0,-0.007,-0.0069,0,0,0,0,0,0,0,0,-0.0204,-0.0203,-0.0195,-0.0194,-0.0191,-0.0168,-0.0155,-0.0139,-0.015,-0.0164,-0.0149,-0.0148,-0.0107,-0.0103,-0.0097,-0.0067,-0.0064,-0.007,-0.0069,-0.0068,-0.0067,0,0,0,0,0,0,0,-0.0205,-0.0204,-0.0196,-0.0195,-0.0193,-0.0176,-0.0173,-0.0152,-0.0137,-0.0163,-0.0161,-0.0159,-0.0106,-0.01,-0.0095,-0.0063,-0.007,-0.0068,-0.0067,-0.0066,-0.0019,-0.0019,0,0,0,0,0,0,-0.0212,-0.0205,-0.0197,-0.0195,-0.0198,-0.0176,-0.0173,-0.0175,-0.0138,-0.0133,-0.0159,-0.0158,-0.0104,-0.0098,-0.0093,-0.0086,-0.0068,-0.0066,-0.0064,-0.0018,-0.0019,-0.0019,0,0,0,0,0,0,-0.0213,-0.0212,-0.0199,-0.02,-0.0197,-0.0177,-0.0179,-0.0175,-0.017,-0.0136,-0.0129,-0.0158,-0.0103,-0.0096,-0.0079,-0.0083,-0.0064,-0.0062,-0.0018,-0.0019,-0.0019,-0.007,0,0,0,0,0,0,-0.0213,-0.0213,-0.0218,-0.02,-0.0197,-0.0198,-0.0179,-0.0174,-0.0169,-0.0167,-0.0133,-0.0126,-0.0103,-0.0082,-0.0076,-0.008,-0.006,-0.0018,-0.0018,-0.0019,-0.0068,-0.0072,-0.0076,0,0,0,0,0,-0.0214,-0.0225,-0.0219,-0.0218,-0.0205,-0.0199,-0.0196,-0.0179,-0.017,-0.0173,-0.0148,-0.0127,-0.008,-0.0081,-0.0074,-0.0076,-0.0018,-0.0018,-0.0019,-0.0067,-0.0072,-0.0076,0,0,0,0,0,0,-0.0234,-0.0223,-0.0216,-0.0224,-0.0215,-0.0195,-0.0196,-0.0184,-0.0168,-0.0165,-0.0131,-0.0123,-0.0109,-0.0086,-0.0087,-0.0063,-0.0045,-0.0044,-0.0084,-0.0088,-0.0091,-0.0101,-0.0058,0,0,0,0,0,-0.0241,-0.0246,-0.0232,-0.0239,-0.0236,-0.0217,-0.0212,-0.0202,-0.0184,-0.0177,-0.0154,-0.0127,-0.0105,-0.0092,-0.007,-0.0057,-0.0029,-0.0053,-0.0057,-0.006,-0.0062,-0.0024,-0.0024,-0.002,-0.002,-0.002,0,0,-0.0252,-0.0246,-0.0249,-0.0243,-0.0234,-0.0238,-0.0213,-0.0211,-0.0213,-0.0172,-0.0168,-0.0141,-0.0105,-0.0092,-0.0084,-0.0073,-0.0048,-0.0061,-0.0064,-0.0064,-0.0024,-0.0025,-0.0025,-0.002,-0.002,-0.002,0,0,-0.0276,-0.027,-0.0282,-0.0277,-0.0268,-0.0257,-0.0259,-0.0242,-0.0233,-0.0225,-0.0195,-0.0171,-0.0142,-0.0115,-0.0098,-0.0107,-0.007,-0.0101,-0.0124,-0.0087,-0.0087,-0.0087,-0.0057,-0.0053,-0.01,-0.01,-0.01,0,-0.029,-0.0303,-0.0285,-0.0295,-0.0296,-0.0269,-0.0283,-0.0271,-0.0251,-0.0243,-0.0232,-0.0182,-0.0152,-0.0127,-0.0131,-0.0115,-0.0091,-0.0112,-0.0092,-0.0091,-0.009,-0.0059,-0.0055,-0.0103,-0.0102,-0.0102,-0.0102,0,-0.032,-0.0332,-0.0339,-0.0343,-0.0342,-0.035,-0.0331,-0.0327,-0.0311,-0.0293,-0.0269,-0.0227,-0.0195,-0.0181,-0.0159,-0.0136,-0.0122,-0.0104,-0.0083,-0.0093,-0.006,-0.0055,-0.0106,-0.0105,-0.0105,-0.0104,0,0,-0.0347,-0.036,-0.0363,-0.0377,-0.0369,-0.0374,-0.0374,-0.0366,-0.0366,-0.0335,-0.0328,-0.0282,-0.0253,-0.0231,-0.0194,-0.016,-0.0132,-0.0134,-0.0131,-0.0109,-0.0055,-0.007,-0.0064,-0.0111,-0.011,-0.011,-0.0038,0,-0.0378,-0.0413,-0.0406,-0.044,-0.0456,-0.0434,-0.044,-0.0426,-0.0404,-0.039,-0.0333,-0.0313,-0.0273,-0.0258,-0.0218,-0.0153,-0.0119,-0.0153,-0.0045,-0.0042,-0.0056,-0.0059,-0.0107,-0.0033,-0.0032,-0.0031,-0.003,0,-0.0408,-0.0429,-0.0469,-0.0492,-0.0497,-0.0511,-0.0512,-0.0512,-0.0477,-0.0458,-0.0417,-0.0372,-0.0315,-0.0283,-0.0174,-0.0198,-0.0134,-0.0082,-0.0077,-0.0069,-0.0045,-0.0018,-0.002,-0.0021,-0.0022,-0.0022,-0.0023,0,-0.0437,-0.0472,-0.0509,-0.0516,-0.0535,-0.0549,-0.0555,-0.0535,-0.0538,-0.0499,-0.0491,-0.0413,-0.0378,-0.0284,-0.0179,-0.0173,-0.0063,-0.0037,0.0013,0.0013,0.0027,0.0026,0.0038,0.0038,0.0038,0.0038,0.0038,0,-0.0468,-0.0499,-0.053,-0.0551,-0.0597,-0.059,-0.0623,-0.0613,-0.0598,-0.0604,-0.053,-0.0511,-0.0377,-0.0298,-0.0195,-0.0082,-0.0071,0.0007,0.003,0.0003,-0.0001,0.0031,0.0029,0.0041,0.004,0.0039,0.0039,0,-0.0493,-0.0511,-0.0562,-0.0598,-0.0615,-0.0647,-0.068,-0.0697,-0.0674,-0.0678,-0.0668,-0.0582,-0.0473,-0.0343,-0.019,-0.0111,0.0004,0.0041,-0.001,0.0009,0.0063,0.0058,0.0115,0.0115,0.0115,0.0115,0.0115,0,-0.0507,-0.0534,-0.0603,-0.0641,-0.0664,-0.0709,-0.0741,-0.0738,-0.075,-0.0721,-0.0721,-0.0627,-0.0554,-0.0349,-0.0213,-0.0021,0.0007,0.0063,0.0078,0.0054,0.0071,0.0066,0.0061,0.0115,0.0115,0.0115,0.0115,0,-0.0534,-0.0562,-0.0604,-0.0687,-0.0738,-0.079,-0.0828,-0.084,-0.0829,-0.0816,-0.0753,-0.0641,-0.0523,-0.0353,-0.0214,-0.0075,0.0027,0.0065,0.0066,0.0081,0.0055,0.0071,0.0066,0.0115,0.0115,0.0115,0.0115,0,-0.0552,-0.0592,-0.0654,-0.0721,-0.0795,-0.0846,-0.0862,-0.0864,-0.0866,-0.0817,-0.0802,-0.0663,-0.058,-0.0382,-0.0255,-0.0122,-0.0074,-0.0026,-0.0018,-0.0017,-0.0078,-0.0131,-0.011,0,0,0,0,0,-0.0565,-0.0612,-0.0683,-0.0759,-0.0833,-0.0869,-0.0911,-0.0912,-0.0901,-0.086,-0.0824,-0.0708,-0.0503,-0.0417,-0.0282,-0.0252,-0.006,-0.0091,-0.0003,0.0117,0.0117,0.0066,0,0,0,0,0,0,-0.0576,-0.0645,-0.0682,-0.0774,-0.0828,-0.0901,-0.0926,-0.0917,-0.0881,-0.0851,-0.0739,-0.0679,-0.0477,-0.0577,-0.028,-0.0242,-0.0168,0.0006,0.0008,0.0117,0.0117,0.0116,0.0064,0,0,0,0,0]}]]